THORAD AGENA D DEB, 42537

Orbit data source: Space-Track

THORAD AGENA D DEB, 42537 is space debris in SSO originally from a launch on Wed, 08 Apr 1970 UTC launched from the Air Force Western Test Range (AFWTR). Debris objects in space refer to the collection of defunct objects orbiting the Earth. Examples of debris include non-operational satellites, rocket bodies, and fragments generated from explosions, collisions, or faulty payload assembly.

Loading next visibility...
Identifier
42537, 1970-025ST
Orbit
SSO
Country
Flag of USUS
Related business
Manufacturer
Unknown
Mission
Spacecraft
Bus & Motor
Unknown
Mass
Unknown
Launch date (UTC)
1970-04-08 (56 years ago)
Launch vehicle
Unknown
Launch site
Air Force Western Test Range (AFWTR)
Object type
Payload
Rocket body
Debris
Shape & HBR
Unknown shape, 0.1 m
Radar Cross Section
Small (<0.1 m²)

Expand to show TLE details & history
Last TLE update: 1 week ago

TLE from 1 week ago
0 THORAD AGENA D DEB
1 42537U 70025ST  26112.97398279  .00000692  00000-0  67647-3 0  9991
2 42537 100.0212  10.2137 0009189  23.9138 336.2438 13.83185568 45013
Epoch: 2026-04-22T23:22Z
TLE epoch observation values (Epoch: 2026-04-22T23:22:32.113Z)
Latitude
-0.00009°
Longitude
168.55219°
Altitude
949.264 km
Speed
7.38 km/s
True Right ascension
00h 40m 51s
True Declination
0° 00' 00"
Sunlit
Object was in daylight at epoch
Visualization orbit readout
Latitude
Unknown
Longitude
Unknown
Altitude
Unknown
Speed
Unknown
Apparent Right ascension
Unknown
Apparent Declination
Unknown
Sunlit
N/A
Visualization observer readout
Local Sidereal Time
17:30:37
Azimuth
Unknown
Elevation
Unknown
Doppler factor
Unknown
Orbital elements
Apogee altitude
956.618 km
Perigee altitude
943.15 km
Semi-major axis
7,328.021 km
Eccentricity
0.00092
Inclination
100.0212°
RAAN
10.2137°
Arg. of periapsis
23.9138°
True anomaly
336.20134°
Mean anomaly
336.2438°
Eccentric anomaly
336.22257°
Mean motion
3.4599 °/min
Orbital period
104.05 mins
BSTAR
0.00067647

Documentation

Showing up to 5 results
|